This demonstration page uses our WeatherBlox Daily Observations layout. Learn more.

Left ArrowRight Arrow

39.01783, -85.05884

Hourly Observations for September 15, 2017

Temp ( °F °C ) Dew Point ( °F °C ) Humidity (%) Winds ( mph kmh ) Pressure ( in mb ) Visibility ( mi km ) Precip ( " mm )
12:52 am 00:52 Partly Cloudy with Mist and Fog 58 14.4 58 14.4 100 100 S 5 7 30.00 1016 5 8 0.00 0.00
1:52 am 01:52 Partly Cloudy 59 15 59 15 100 100 S 3 6 30.01 1016 7 11 0.00 0.00
2:52 am 02:52 Clear 59 15 59 15 100 100 Calm 30.01 1016 9 14 0.00 0.00
3:52 am 03:52 Clear with Patchy Fog 58 14.4 58 14.4 100 100 Calm 30.02 1017 5 8 0.00 0.00
4:52 am 04:52 Partly Cloudy with Mist and Fog 55 12.8 55 12.8 100 100 Calm 30.02 1017 3 5 0.00 0.00
5:52 am 05:52 Mostly Clear with Mist and Fog 56 13.3 56 13.3 100 100 Calm 30.03 1017 4 6 0.00 0.00
6:52 am 06:52 Partly Cloudy with Mist and Fog 56 13.3 56 13.3 100 100 Calm 30.06 1018 6 10 0.00 0.00
7:52 am 07:52 Sunny with Mist and Fog 56 13.3 56 13.3 100 100 Calm 30.08 1019 6 10 0.00 0.00
8:52 am 08:52 Sunny 62 16.7 62 16.7 100 100 Calm 30.09 1019 10 16 0.00 0.00
9:52 am 09:52 Sunny 67 19.4 65 18.3 93 93 Calm 30.10 1019 10 16 0.00 0.00
10:52 am 10:52 Mostly Sunny 72 22.2 65 18.3 79 79 VRB 3 6 30.10 1019 10 16 0.00 0.00
11:52 am 11:52 Mostly Cloudy 73 22.8 62 16.7 69 69 E 3 6 30.09 1019 10 16 0.00 0.00
12:25 pm 12:25 Partly Cloudy 74 23.3 62 16.7 67 67 Calm 30.09 1019 10 16 0.00 0.00
12:52 pm 12:52 Partly Cloudy 76 24.4 64 17.8 67 67 ESE 3 6 30.09 1019 10 16 0.00 0.00
1:52 pm 13:52 Partly Cloudy 76 24.4 61 16.1 60 60 Calm 30.08 1019 10 16 0.00 0.00
2:52 pm 14:52 Partly Cloudy 77 25 61 16.1 58 58 SSW 7 11 30.06 1018 10 16 0.00 0.00
3:52 pm 15:52 Partly Cloudy 76 24.4 62 16.7 62 62 Calm 30.06 1018 10 16 0.00 0.00
4:52 pm 16:52 Partly Cloudy 79 26.1 62 16.7 56 56 VRB 3 6 30.06 1018 10 16 0.00 0.00
5:52 pm 17:52 Mostly Sunny 77 25 62 16.7 60 60 ENE 5 7 30.06 1018 10 16 0.00 0.00
6:52 pm 18:52 Mostly Sunny 76 24.4 63 17.2 64 64 ESE 6 9 30.06 1018 10 16 0.00 0.00
7:52 pm 19:52 Mostly Clear 73 22.8 62 16.7 69 69 ESE 6 9 30.06 1018 10 16 0.00 0.00
8:52 pm 20:52 Mostly Clear 69 20.6 62 16.7 78 78 ESE 7 11 30.07 1018 10 16 0.00 0.00
9:52 pm 21:52 Clear 69 20.6 63 17.2 81 81 ESE 7 11 30.08 1019 10 16 0.00 0.00
10:52 pm 22:52 Clear 68 20 64 17.8 87 87 ESE 8 13 30.09 1019 10 16 0.00 0.00
11:52 pm 23:52 Clear 66 18.9 64 17.8 93 93 ESE 7 11 30.10 1019 10 16 0.00 0.00

Powered by AerisWeather